| time (UTC) | temp F | wind direction | speed knots | gust knots | rain 1hr in | rain 24hr in | rain mn in | humidity % | barometer mb |
| 20260510164619 | 0 | 81 | 1.7 | 6.1 | 0.00 | 0.01 | 0.00 | 1015.5 | |
| 20260510163619 | 0 | 329 | 0.9 | 3.5 | 0.00 | 0.01 | 0.00 | 1015.7 | |
| 20260510163055 | 0 | 52 | 0.9 | 4.3 | 0.00 | 0.01 | 0.00 | 1015.6 | |
| 20260510161615 | 0 | 156 | 0.9 | 3.5 | 0.00 | 0.01 | 0.00 | 1015.7 | |
| 20260510161050 | 0 | 40 | 0.9 | 3.5 | 0.00 | 0.01 | 0.00 | 1015.8 | |
| 20260510155613 | 0 | 145 | 1.7 | 6.1 | 0.00 | 0.01 | 0.00 | 1015.9 | |
| 20260510154613 | 0 | 35 | 0.9 | 4.3 | 0.00 | 0.01 | 0.00 | 1016.0 | |
| 20260510153611 | 0 | 13 | 0.9 | 3.5 | 0.00 | 0.01 | 0.00 | 1016.1 | |
| 20260510152610 | 0 | 23 | 0.9 | 2.6 | 0.00 | 0.01 | 0.00 | 1016.1 | |
| 20260510151609 | 0 | 94 | 0.9 | 2.6 | 0.00 | 0.01 | 0.00 | 1015.9 | |
| 20260510150610 | 0 | 18 | 0.9 | 4.3 | 0.00 | 0.01 | 0.00 | 1016.0 | |
| 20260510150052 | 0 | 38 | 0.9 | 2.6 | 0.00 | 0.01 | 0.00 | 1015.9 | |
| 20260510144608 | 0 | 40 | 0.9 | 2.6 | 0.00 | 0.01 | 0.00 | 1016.0 | |
| 20260510143607 | 0 | 32 | 0.9 | 2.6 | 0.00 | 0.01 | 0.00 | 1015.8 | |
| 20260510142609 | 0 | 32 | 0.9 | 2.6 | 0.00 | 0.01 | 0.00 | 1015.8 | |
| 20260510141605 | 0 | 32 | 0.9 | 2.6 | 0.00 | 0.01 | 0.00 | 1015.8 | |
| 20260510141044 | 0 | 65 | 0.9 | 2.6 | 0.00 | 0.01 | 0.00 | 1015.9 | |
| 20260510135606 | 0 | 75 | 0.9 | 2.6 | 0.00 | 0.01 | 0.00 | 1015.8 | |
| 20260510134604 | 0 | 72 | 1.7 | 4.3 | 0.00 | 0.01 | 0.00 | 1015.9 | |
| 20260510133606 | 0 | 61 | 0.9 | 2.6 | 0.00 | 0.01 | 0.00 | 1015.8 | |
| 20260510133046 | 0 | 42 | 0.9 | 2.6 | 0.00 | 0.01 | 0.00 | 1015.7 | |
| 20260510132513 | 0 | 345 | 0.9 | 2.6 | 0.00 | 0.01 | 0.00 | 1015.8 | |
| 20260510130603 | 0 | 320 | 0.0 | 1.7 | 0.00 | 0.01 | 0.00 | 1015.5 | |
| 20260510125604 | 0 | 320 | 0.0 | 1.7 | 0.00 | 0.01 | 0.00 | 1015.5 | |
| 20260510124600 | 0 | 320 | 0.0 | 0.9 | 0.00 | 0.01 | 0.00 | 1015.2 | |
| 20260510123559 | 0 | 320 | 0.0 | 1.7 | 0.00 | 0.01 | 0.00 | 1015.2 | |
| 20260510123034 | 0 | 317 | 0.0 | 0.9 | 0.00 | 0.01 | 0.00 | 1015.3 | |
| 20260510121558 | 0 | 317 | 0.0 | 0.0 | 0.00 | 0.01 | 0.00 | 1015.2 | |
| 20260510120558 | 0 | 317 | 0.0 | 0.0 | 0.00 | 0.01 | 0.00 | 1015.1 | |
| 20260510115557 | 0 | 317 | 0.0 | 0.9 | 0.00 | 0.01 | 0.00 | 1015.1 | |
| 20260510114554 | 0 | 317 | 0.0 | 0.0 | 0.00 | 0.01 | 0.00 | 1014.9 | |
| 20260510114006 | 0 | 317 | 0.0 | 0.9 | 0.00 | 0.01 | 0.00 | 1014.7 | |
| 20260510113737 | 0 | 317 | 0.0 | 0.9 | 0.00 | 0.01 | 0.00 | 1014.8 | |
| 20260510112038 | 0 | 317 | 0.0 | 0.9 | 0.00 | 0.01 | 0.00 | 1014.6 | |
| 20260510110556 | 0 | 317 | 0.0 | 1.7 | 0.00 | 0.01 | 0.00 | 1014.3 | |
| 20260510110231 | 0 | 319 | 0.0 | 0.0 | 0.00 | 0.01 | 0.00 | 1014.1 | |
| 20260510110126 | 0 | 319 | 0.0 | 0.0 | 0.00 | 0.01 | 0.00 | 1014.2 | |
| 20260510103549 | 0 | 319 | 0.0 | 0.0 | 0.00 | 0.01 | 0.00 | 1013.8 | |
| 20260510102549 | 0 | 319 | 0.0 | 0.0 | 0.00 | 0.01 | 0.00 | 1013.7 | |
| 20260510101542 | 0 | 319 | 0.0 | 0.0 | 0.00 | 0.01 | 0.00 | 1013.5 | |
| 20260510100542 | 0 | 319 | 0.0 | 0.0 | 0.00 | 0.01 | 0.00 | 1013.6 | |
| 20260510095540 | 0 | 319 | 0.0 | 0.0 | 0.00 | 0.01 | 0.00 | 1013.4 | |
| 20260510094539 | 0 | 319 | 0.0 | 0.0 | 0.00 | 0.01 | 0.00 | 1013.3 | |
| 20260510093539 | 0 | 319 | 0.0 | 0.0 | 0.00 | 0.01 | 0.00 | 1013.1 | |
| 20260510093020 | 0 | 319 | 0.0 | 0.0 | 0.00 | 0.01 | 0.00 | 1013.1 | |
| 20260510091534 | 0 | 319 | 0.0 | 0.0 | 0.00 | 0.01 | 0.00 | 1013.0 | |
| 20260510090532 | 0 | 319 | 0.0 | 0.0 | 0.00 | 0.01 | 0.00 | 1013.0 | |
| 20260510085533 | 0 | 319 | 0.0 | 0.0 | 0.00 | 0.01 | 0.00 | 1012.7 | |
| 20260510084533 | 0 | 319 | 0.0 | 0.0 | 0.00 | 0.01 | 0.00 | 1012.7 | |
| 20260510083533 | 0 | 319 | 0.0 | 0.0 | 0.00 | 0.01 | 0.00 | 1012.7 | |
| 20260510082532 | 0 | 319 | 0.0 | 0.0 | 0.00 | 0.01 | 0.00 | 1012.7 | |
| 20260510081534 | 0 | 319 | 0.0 | 0.0 | 0.00 | 0.01 | 0.00 | 1012.6 | |
| 20260510081007 | 0 | 319 | 0.0 | 0.0 | 0.00 | 0.01 | 0.00 | 1012.6 | |
| 20260510075531 | 0 | 319 | 0.0 | 0.0 | 0.00 | 0.01 | 0.00 | 1012.6 | |
| 20260510074530 | 0 | 319 | 0.0 | 0.0 | 0.00 | 0.01 | 0.00 | 1012.6 | |
| 20260510073530 | 0 | 319 | 0.0 | 0.0 | 0.00 | 0.01 | 0.00 | 1012.5 | |
| 20260510072531 | 0 | 319 | 0.0 | 0.0 | 0.00 | 0.01 | 0.00 | 1012.4 | |
| 20260510071531 | 0 | 319 | 0.0 | 0.0 | 0.00 | 0.01 | 0.00 | 1012.5 | |
| 20260510070530 | 0 | 319 | 0.0 | 0.0 | 0.00 | 0.01 | 0.00 | 1012.4 | |
| 20260510065529 | 0 | 319 | 0.0 | 0.0 | 0.00 | 0.01 | 0.00 | 1012.4 | |
| 20260510064531 | 0 | 319 | 0.0 | 0.0 | 0.00 | 0.01 | 0.00 | 1012.5 | |
| 20260510063531 | 0 | 319 | 0.0 | 0.0 | 0.00 | 0.01 | 0.00 | 1012.2 | |
| 20260510063020 | 0 | 319 | 0.0 | 0.0 | 0.00 | 0.01 | 0.00 | 1012.2 | |
| 20260510061530 | 0 | 319 | 0.0 | 0.0 | 0.00 | 0.01 | 0.00 | 1012.4 | |
| 20260510060527 | 0 | 319 | 0.0 | 0.0 | 0.00 | 0.01 | 0.00 | 1012.6 | |
| 20260510055527 | 0 | 319 | 0.0 | 0.0 | 0.00 | 0.01 | 0.00 | 1012.4 | |
| 20260510054527 | 0 | 319 | 0.0 | 0.0 | 0.00 | 0.01 | 0.00 | 1012.6 | |
| 20260510053957 | 0 | 319 | 0.0 | 0.0 | 0.00 | 0.01 | 0.00 | 1012.7 | |
| 20260510052523 | 0 | 319 | 0.0 | 0.0 | 0.00 | 0.01 | 0.00 | 1012.7 | |
| 20260510051523 | 0 | 319 | 0.0 | 0.0 | 0.00 | 0.01 | 0.00 | 1012.8 | |
| 20260510050522 | 0 | 319 | 0.0 | 0.0 | 0.00 | 0.01 | 0.00 | 1012.9 | |
| 20260510045521 | 0 | 319 | 0.0 | 0.0 | 0.00 | 0.01 | 0.00 | 1013.0 | |
| 20260510044523 | 0 | 319 | 0.0 | 0.0 | 0.00 | 0.01 | 0.00 | 1013.0 | |
| 20260510043522 | 0 | 319 | 0.0 | 0.0 | 0.00 | 0.01 | 0.00 | 1012.9 | |
| 20260510042522 | 0 | 319 | 0.0 | 0.0 | 0.00 | 0.01 | 0.00 | 1012.8 | |
| 20260510041521 | 0 | 319 | 0.0 | 0.0 | 0.00 | 0.01 | 0.00 | 1012.9 | |
| 20260510040521 | 0 | 319 | 0.0 | 0.0 | 0.00 | 0.01 | 0.00 | 1012.8 | |
| 20260510040442 | 0 | 319 | 0.0 | 0.0 | 0.00 | 0.01 | 0.01 | 1012.8 | |
| 20260510034518 | 0 | 319 | 0.0 | 0.0 | 0.00 | 0.01 | 0.01 | 1012.8 | |
| 20260510033514 | 0 | 319 | 0.0 | 0.0 | 0.00 | 0.01 | 0.01 | 1012.7 | |
| 20260510032513 | 0 | 319 | 0.0 | 0.0 | 0.00 | 0.01 | 0.01 | 1012.7 | |
| 20260510031512 | 0 | 319 | 0.0 | 0.0 | 0.00 | 0.01 | 0.01 | 1012.7 | |
| 20260510030513 | 0 | 319 | 0.0 | 0.0 | 0.00 | 0.01 | 0.01 | 1012.7 | |
| 20260510025510 | 0 | 319 | 0.0 | 0.0 | 0.00 | 0.01 | 0.01 | 1012.5 | |
| 20260510024511 | 0 | 319 | 0.0 | 0.0 | 0.00 | 0.01 | 0.01 | 1012.6 | |
| 20260510023508 | 0 | 319 | 0.0 | 0.0 | 0.00 | 0.01 | 0.01 | 1012.5 | |
| 20260510022509 | 0 | 319 | 0.0 | 0.0 | 0.00 | 0.01 | 0.01 | 1012.5 | |
| 20260510022417 | 0 | 319 | 0.0 | 0.0 | 0.00 | 0.01 | 0.01 | 1012.5 | |
| 20260510020955 | 0 | 319 | 0.0 | 0.0 | 0.00 | 0.01 | 0.01 | 1012.5 | |
| 20260510015502 | 0 | 319 | 0.0 | 0.0 | 0.00 | 0.01 | 0.01 | 1012.3 | |
| 20260510014504 | 0 | 319 | 0.0 | 0.0 | 0.00 | 0.01 | 0.01 | 1012.2 | |
| 20260510013504 | 0 | 319 | 0.0 | 0.0 | 0.00 | 0.01 | 0.01 | 1011.9 | |
| 20260510012500 | 0 | 319 | 0.0 | 0.0 | 0.00 | 0.01 | 0.01 | 1011.8 | |
| 20260510011458 | 0 | 319 | 0.0 | 0.0 | 0.00 | 0.01 | 0.01 | 1011.7 | |
| 20260510010456 | 0 | 319 | 0.0 | 0.0 | 0.00 | 0.01 | 0.01 | 1011.7 | |
| 20260510005454 | 0 | 319 | 0.0 | 0.0 | 0.00 | 0.01 | 0.01 | 1011.6 | |
| 20260510004454 | 0 | 319 | 0.0 | 0.0 | 0.00 | 0.01 | 0.01 | 1011.7 | |
| 20260510003452 | 0 | 319 | 0.0 | 0.0 | 0.00 | 0.01 | 0.01 | 1011.6 | |
| 20260510002451 | 0 | 319 | 0.0 | 0.0 | 0.00 | 0.01 | 0.01 | 1011.6 | |
| 20260510001451 | 0 | 319 | 0.0 | 0.0 | 0.00 | 0.01 | 0.01 | 1011.6 | |
| 20260510000444 | 0 | 319 | 0.0 | 0.9 | 0.00 | 0.01 | 0.01 | 1011.4 | |
| 20260509235444 | 0 | 319 | 0.0 | 0.0 | 0.00 | 0.01 | 0.01 | 1011.1 | |
| 20260509234443 | 0 | 319 | 0.0 | 0.0 | 0.00 | 0.01 | 0.01 | 1010.9 | |
| 20260509233440 | 0 | 319 | 0.0 | 0.9 | 0.00 | 0.01 | 0.01 | 1010.9 | |
| 20260509232441 | 0 | 319 | 0.0 | 0.9 | 0.00 | 0.01 | 0.01 | 1010.9 | |
| 20260509231443 | 0 | 319 | 0.0 | 1.7 | 0.00 | 0.01 | 0.01 | 1010.8 | |
| 20260509230441 | 0 | 319 | 0.0 | 0.9 | 0.00 | 0.01 | 0.01 | 1010.7 | |
| 20260509225438 | 0 | 319 | 0.0 | 1.7 | 0.00 | 0.01 | 0.01 | 1010.5 | |
| 20260509224436 | 0 | 319 | 0.9 | 2.6 | 0.00 | 0.01 | 0.01 | 1010.6 | |
| 20260509223914 | 0 | 171 | 0.9 | 3.5 | 0.00 | 0.01 | 0.01 | 1010.8 | |
| 20260509222433 | 0 | 247 | 0.9 | 1.7 | 0.00 | 0.01 | 0.01 | 1011.0 | |
| 20260509221435 | 0 | 182 | 0.9 | 4.3 | 0.00 | 0.01 | 0.01 | 1010.8 | |
| 20260509220912 | 0 | 200 | 0.9 | 2.6 | 0.00 | 0.01 | 0.01 | 1010.8 | |
| 20260509215433 | 0 | 114 | 0.9 | 3.5 | 0.00 | 0.01 | 0.01 | 1010.7 | |
| 20260509214435 | 0 | 267 | 0.9 | 3.5 | 0.00 | 0.01 | 0.01 | 1010.7 | |
| 20260509213923 | 0 | 238 | 0.9 | 3.5 | 0.00 | 0.01 | 0.01 | 1010.5 | |
| 20260509212429 | 0 | 144 | 0.9 | 3.5 | 0.00 | 0.01 | 0.01 | 1010.5 | |
| 20260509211427 | 0 | 283 | 0.9 | 3.5 | 0.00 | 0.01 | 0.01 | 1010.3 | |
| 20260509210426 | 0 | 263 | 0.9 | 5.2 | 0.00 | 0.01 | 0.01 | 1010.4 | |
| 20260509205906 | 0 | 317 | 1.7 | 5.2 | 0.00 | 0.01 | 0.01 | 1010.6 | |
| 20260509204421 | 0 | 136 | 0.0 | 3.5 | 0.00 | 0.01 | 0.01 | 1010.6 | |
| 20260509203912 | 0 | 164 | 0.9 | 2.6 | 0.00 | 0.01 | 0.01 | 1010.5 | |
| 20260509202423 | 0 | 277 | 0.9 | 2.6 | 0.00 | 0.01 | 0.01 | 1010.5 | |
| 20260509201421 | 0 | 223 | 0.9 | 4.3 | 0.00 | 0.01 | 0.01 | 1010.4 | |
| 20260509200421 | 0 | 144 | 0.9 | 4.3 | 0.00 | 0.01 | 0.01 | 1010.7 | |
| 20260509195419 | 0 | 196 | 0.0 | 2.6 | 0.00 | 0.01 | 0.01 | 1010.9 | |
| 20260509194418 | 0 | 136 | 0.9 | 2.6 | 0.00 | 0.01 | 0.01 | 1010.9 | |
| 20260509193418 | 0 | 225 | 0.9 | 2.6 | 0.00 | 0.01 | 0.01 | 1011.0 | |
| 20260509192415 | 0 | 277 | 0.9 | 2.6 | 0.00 | 0.01 | 0.01 | 1011.1 | |
| 20260509191417 | 0 | 230 | 0.9 | 1.7 | 0.00 | 0.01 | 0.01 | 1011.1 | |
| 20260509190416 | 0 | 206 | 1.7 | 5.2 | 0.00 | 0.01 | 0.01 | 1011.3 | |
| 20260509185416 | 0 | 340 | 1.7 | 5.2 | 0.00 | 0.01 | 0.01 | 1011.1 | |
| 20260509184415 | 0 | 187 | 1.7 | 6.1 | 0.01 | 0.01 | 0.01 | 1011.0 | |
| 20260509183416 | 0 | 275 | 0.9 | 3.5 | 0.01 | 0.01 | 0.01 | 1011.0 | |
| 20260509182416 | 0 | 141 | 0.9 | 3.5 | 0.01 | 0.01 | 0.01 | 1011.1 | |
| 20260509181410 | 0 | 328 | 0.9 | 3.5 | 0.01 | 0.01 | 0.01 | 1011.3 | |
| 20260509180411 | 0 | 289 | 0.9 | 5.2 | 0.01 | 0.01 | 0.01 | 1011.7 | |
| 20260509175410 | 0 | 12 | 0.9 | 3.5 | 0.01 | 0.01 | 0.01 | 1011.8 | |
| 20260509174411 | 0 | 129 | 1.7 | 4.3 | 0.00 | 0.00 | 0.00 | 1011.8 | |
| 20260509173409 | 0 | 137 | 0.9 | 6.1 | 0.00 | 0.00 | 0.00 | 1011.8 | |
| 20260509172410 | 0 | 21 | 0.9 | 3.5 | 0.00 | 0.00 | 0.00 | 1012.0 | |
| 20260509171409 | 0 | 352 | 0.9 | 3.5 | 0.00 | 0.00 | 0.00 | 1012.1 | |
| 20260509170408 | 0 | 165 | 1.7 | 3.5 | 0.00 | 0.00 | 0.00 | 1012.3 | |
| 20260509165407 | 0 | 227 | 1.7 | 6.1 | 0.00 | 0.00 | 0.00 | 1012.5 | |
| 20260509164859 | 0 | 209 | 1.7 | 7.0 | 0.00 | 0.00 | 0.00 | 1012.5 |